AZU2202 SBAR-SBJE

Flight info

Callsign AZU2202
Flight time 1h 50m
Altitude 41000
Route GERSO UZ42 ANBEX DCT IREKI DCT IROSI/N0458F400 UZ81 ISUPI
Aircraft E190/M-SDE3GILORVW/S

Departure

Time 2026-05-08 19:52
Airport Aracaju - Santa Maria Airport (SBAR)

Arrival

Time 2026-05-08 21:42
Airport Comandante Ariston Pessoa Airport (SBJE)
Time Latitude Longitude Altitude Speed Heading
2026-05-08 19:38 -10.98625 -37.07234 31 ft 0 kts 183°
2026-05-08 19:42 -10.98618 -37.07234 31 ft 2 kts 183°
2026-05-08 19:42 -10.98603 -37.07233 31 ft 2 kts 183°
2026-05-08 19:43 -10.98588 -37.07233 31 ft 2 kts 186°
2026-05-08 19:43 -10.98577 -37.07225 31 ft 2 kts 242°
2026-05-08 19:43 -10.98574 -37.07213 31 ft 1 kts 279°
2026-05-08 19:43 -10.98575 -37.07207 31 ft 0 kts 275°
2026-05-08 19:44 -10.98575 -37.07204 31 ft 0 kts 273°
2026-05-08 19:45 -10.98575 -37.07206 31 ft 0 kts 272°
2026-05-08 19:46 -10.98575 -37.07210 31 ft 1 kts 272°
2026-05-08 19:46 -10.98567 -37.07226 31 ft 4 kts 317°
2026-05-08 19:46 -10.98468 -37.07230 31 ft 9 kts 359°
2026-05-08 19:47 -10.98405 -37.07233 31 ft 9 kts 339°
2026-05-08 19:47 -10.98388 -37.07288 31 ft 9 kts 265°
2026-05-08 19:47 -10.98388 -37.07352 31 ft 9 kts 272°
2026-05-08 19:47 -10.98386 -37.07417 31 ft 9 kts 272°
2026-05-08 19:48 -10.98384 -37.07483 31 ft 9 kts 271°
2026-05-08 19:48 -10.98381 -37.07550 31 ft 9 kts 272°
2026-05-08 19:48 -10.98379 -37.07620 31 ft 9 kts 272°
2026-05-08 19:48 -10.98376 -37.07690 32 ft 10 kts 272°
2026-05-08 19:49 -10.98373 -37.07762 32 ft 10 kts 272°
2026-05-08 19:49 -10.98369 -37.07835 32 ft 10 kts 272°
2026-05-08 19:49 -10.98366 -37.07910 32 ft 10 kts 271°
2026-05-08 19:49 -10.98348 -37.07977 32 ft 8 kts 310°
2026-05-08 19:50 -10.98336 -37.08020 32 ft 5 kts 224°
2026-05-08 19:50 -10.98364 -37.08008 32 ft 5 kts 102°
2026-05-08 19:50 -10.98366 -37.07995 32 ft 0 kts 94°
2026-05-08 19:51 -10.98371 -37.07859 32 ft 52 kts 92°
2026-05-08 19:51 -10.98391 -37.07265 31 ft 115 kts 92°
2026-05-08 19:51 -10.98425 -37.06275 97 ft 156 kts 91°
2026-05-08 19:52 -10.98391 -37.05178 605 ft 163 kts 89°
2026-05-08 19:52 -10.98329 -37.04004 1158 ft 170 kts 76°
2026-05-08 19:52 -10.97900 -37.02831 1628 ft 192 kts 69°
2026-05-08 19:52 -10.97330 -37.01472 1880 ft 224 kts 70°
2026-05-08 19:53 -10.96698 -36.99920 2143 ft 253 kts 70°
2026-05-08 19:53 -10.96001 -36.98166 2393 ft 279 kts 70°
2026-05-08 19:53 -10.95283 -36.96352 2457 ft 268 kts 70°
2026-05-08 19:53 -10.94626 -36.94684 2496 ft 245 kts 71°
2026-05-08 19:54 -10.94023 -36.93145 2587 ft 222 kts 71°
2026-05-08 19:54 -10.93472 -36.91739 2672 ft 210 kts 71°
2026-05-08 19:54 -10.92925 -36.90341 2806 ft 211 kts 71°
2026-05-08 19:54 -10.92379 -36.88945 2953 ft 214 kts 71°
2026-05-08 19:55 -10.91810 -36.87487 3144 ft 237 kts 71°
2026-05-08 19:55 -10.91175 -36.85863 3372 ft 256 kts 70°
2026-05-08 19:55 -10.90509 -36.84166 3554 ft 260 kts 70°
2026-05-08 19:55 -10.89838 -36.82454 3733 ft 259 kts 70°
2026-05-08 19:56 -10.89172 -36.80755 3912 ft 258 kts 70°
2026-05-08 19:56 -10.88503 -36.79047 4090 ft 259 kts 70°
2026-05-08 19:56 -10.87841 -36.77357 4266 ft 259 kts 70°
2026-05-08 19:56 -10.87169 -36.75645 4442 ft 259 kts 70°
2026-05-08 19:57 -10.86504 -36.73949 4618 ft 260 kts 70°
2026-05-08 19:57 -10.85834 -36.72238 4794 ft 260 kts 70°
2026-05-08 19:57 -10.85161 -36.70523 4972 ft 261 kts 70°
2026-05-08 19:57 -10.84488 -36.68808 5149 ft 261 kts 70°
2026-05-08 19:58 -10.83808 -36.67077 5329 ft 261 kts 69°
2026-05-08 19:58 -10.82741 -36.65609 5507 ft 268 kts 37°
2026-05-08 19:58 -10.80973 -36.64941 5746 ft 275 kts 13°
2026-05-08 19:58 -10.79062 -36.64632 5954 ft 277 kts 12°
2026-05-08 19:59 -10.77155 -36.64331 6142 ft 277 kts 12°
2026-05-08 19:59 -10.75244 -36.64030 6328 ft 277 kts 12°
2026-05-08 19:59 -10.73338 -36.63732 6517 ft 277 kts 12°
2026-05-08 19:59 -10.71423 -36.63433 6705 ft 278 kts 12°
2026-05-08 20:00 -10.69498 -36.63132 6893 ft 278 kts 12°
2026-05-08 20:00 -10.67567 -36.62830 7140 ft 291 kts 12°
2026-05-08 20:00 -10.65552 -36.62516 7944 ft 295 kts 12°
2026-05-08 20:00 -10.63532 -36.62202 8998 ft 290 kts 12°
2026-05-08 20:01 -10.61564 -36.61895 9976 ft 286 kts 12°
2026-05-08 20:01 -10.59621 -36.61591 10749 ft 288 kts 11°
2026-05-08 20:01 -10.57605 -36.61276 11344 ft 298 kts 11°
2026-05-08 20:01 -10.55513 -36.60949 11840 ft 310 kts 11°
2026-05-08 20:02 -10.53341 -36.60611 12382 ft 320 kts 11°
2026-05-08 20:02 -10.51089 -36.60260 13014 ft 326 kts 10°
2026-05-08 20:02 -10.48832 -36.59908 13711 ft 329 kts 10°
2026-05-08 20:02 -10.46573 -36.59556 14401 ft 332 kts 10°
2026-05-08 20:03 -10.44257 -36.59184 15052 ft 336 kts 10°
2026-05-08 20:03 -10.41951 -36.58812 15670 ft 340 kts
2026-05-08 20:03 -10.39589 -36.58432 16286 ft 344 kts
2026-05-08 20:03 -10.37205 -36.58048 16872 ft 349 kts
2026-05-08 20:04 -10.34805 -36.57662 17462 ft 352 kts
2026-05-08 20:04 -10.32354 -36.57267 18081 ft 355 kts
2026-05-08 20:04 -10.29930 -36.56877 18725 ft 356 kts
2026-05-08 20:04 -10.27486 -36.56484 19376 ft 356 kts
2026-05-08 20:05 -10.25011 -36.56086 19991 ft 357 kts
2026-05-08 20:05 -10.22560 -36.55952 20544 ft 356 kts 350°
2026-05-08 20:05 -10.20259 -36.56856 21068 ft 357 kts 324°
2026-05-08 20:05 -10.18588 -36.58711 21607 ft 361 kts 300°
2026-05-08 20:06 -10.17882 -36.61142 22137 ft 370 kts 276°
2026-05-08 20:06 -10.18279 -36.63747 22607 ft 383 kts 252°
2026-05-08 20:06 -10.19748 -36.66025 23044 ft 397 kts 228°
2026-05-08 20:06 -10.21749 -36.67936 23502 ft 396 kts 235°
2026-05-08 20:07 -10.23011 -36.70397 23962 ft 388 kts 259°
2026-05-08 20:07 -10.23152 -36.73071 24415 ft 381 kts 282°
2026-05-08 20:07 -10.22187 -36.75545 24826 ft 379 kts 306°
2026-05-08 20:07 -10.20306 -36.77369 25201 ft 381 kts 329°
2026-05-08 20:08 -10.17786 -36.78263 25545 ft 389 kts 352°
2026-05-08 20:08 -10.15061 -36.78027 25903 ft 398 kts 15°
2026-05-08 20:08 -10.12599 -36.76678 26249 ft 409 kts 38°
2026-05-08 20:08 -10.10789 -36.74455 26608 ft 417 kts 54°
2026-05-08 20:09 -10.08886 -36.72290 26922 ft 414 kts 33°
2026-05-08 20:09 -10.06472 -36.70616 27274 ft 417 kts 35°
2026-05-08 20:09 -10.04225 -36.68735 27604 ft 422 kts 38°
2026-05-08 20:09 -10.02020 -36.66757 27945 ft 426 kts 39°
2026-05-08 20:10 -9.99797 -36.64719 28294 ft 429 kts 40°
2026-05-08 20:10 -9.97565 -36.62660 28640 ft 432 kts 40°
2026-05-08 20:10 -9.95343 -36.60606 29012 ft 434 kts 40°
2026-05-08 20:10 -9.93120 -36.58550 29379 ft 436 kts 40°
2026-05-08 20:11 -9.90876 -36.56475 29752 ft 438 kts 40°
2026-05-08 20:11 -9.88583 -36.54356 30121 ft 441 kts 40°
2026-05-08 20:11 -9.86315 -36.52259 30477 ft 443 kts 39°
2026-05-08 20:11 -9.84046 -36.50163 30822 ft 445 kts 39°
2026-05-08 20:12 -9.81771 -36.48061 31179 ft 446 kts 39°
2026-05-08 20:12 -9.79437 -36.45905 31529 ft 448 kts 39°
2026-05-08 20:12 -9.77136 -36.43779 31934 ft 448 kts 39°
2026-05-08 20:12 -9.74840 -36.41660 32374 ft 447 kts 39°
2026-05-08 20:13 -9.72528 -36.39525 32882 ft 445 kts 39°
2026-05-08 20:13 -9.70267 -36.37438 33396 ft 443 kts 39°
2026-05-08 20:13 -9.67976 -36.35324 33906 ft 442 kts 39°
2026-05-08 20:13 -9.65729 -36.33251 34394 ft 440 kts 38°
2026-05-08 20:14 -9.63439 -36.31138 34870 ft 439 kts 39°
2026-05-08 20:14 -9.61214 -36.29086 35324 ft 438 kts 38°
2026-05-08 20:14 -9.58940 -36.26989 35784 ft 436 kts 38°
2026-05-08 20:14 -9.56697 -36.24921 36189 ft 436 kts 38°
2026-05-08 20:15 -9.54455 -36.22855 36579 ft 436 kts 38°
2026-05-08 20:15 -9.52245 -36.20818 36926 ft 436 kts 38°
2026-05-08 20:15 -9.49991 -36.18742 37287 ft 436 kts 38°
2026-05-08 20:15 -9.47748 -36.16675 37655 ft 436 kts 38°
2026-05-08 20:16 -9.45489 -36.14594 38024 ft 435 kts 38°
2026-05-08 20:16 -9.43272 -36.12553 38384 ft 435 kts 38°
2026-05-08 20:16 -9.41034 -36.10492 38755 ft 434 kts 38°
2026-05-08 20:16 -9.38792 -36.08427 39125 ft 433 kts 38°
2026-05-08 20:17 -9.36563 -36.06376 39480 ft 433 kts 38°
2026-05-08 20:17 -9.34340 -36.04331 39804 ft 433 kts 38°
2026-05-08 20:17 -9.32127 -36.02294 40114 ft 433 kts 38°
2026-05-08 20:17 -9.29899 -36.00245 40456 ft 432 kts 38°
2026-05-08 20:18 -9.27672 -35.98197 40767 ft 432 kts 38°
2026-05-08 20:18 -9.25437 -35.96141 40994 ft 430 kts 38°
2026-05-08 20:18 -9.20947 -35.92014 41008 ft 441 kts 38°
2026-05-08 20:19 -9.16350 -35.87790 41013 ft 451 kts 38°
2026-05-08 20:19 -9.11665 -35.83485 41015 ft 460 kts 38°
2026-05-08 20:20 -9.06917 -35.79125 41000 ft 460 kts 38°
2026-05-08 20:20 -9.01829 -35.75316 41014 ft 450 kts 22°
2026-05-08 20:21 -8.96005 -35.73286 41019 ft 441 kts
2026-05-08 20:21 -8.89925 -35.72146 41008 ft 441 kts
2026-05-08 20:22 -8.83876 -35.70966 41016 ft 442 kts
2026-05-08 20:22 -8.78841 -35.69981 41019 ft 442 kts
2026-05-08 20:23 -8.71742 -35.68592 41013 ft 443 kts
2026-05-08 20:23 -8.65718 -35.67415 41012 ft 442 kts
2026-05-08 20:24 -8.59626 -35.66224 41014 ft 443 kts
2026-05-08 20:24 -8.53558 -35.65038 41013 ft 443 kts
2026-05-08 20:25 -8.47512 -35.63856 41011 ft 443 kts
2026-05-08 20:25 -8.41419 -35.62667 41009 ft 442 kts
2026-05-08 20:26 -8.35350 -35.61482 41015 ft 443 kts
2026-05-08 20:26 -8.29289 -35.60298 41015 ft 443 kts
2026-05-08 20:27 -8.23212 -35.59113 41022 ft 445 kts
2026-05-08 20:27 -8.17166 -35.57933 41010 ft 444 kts
2026-05-08 20:28 -8.11064 -35.56743 41004 ft 444 kts
2026-05-08 20:28 -8.04994 -35.55561 40993 ft 444 kts
2026-05-08 20:29 -7.98934 -35.54379 40986 ft 444 kts
2026-05-08 20:29 -7.92813 -35.53187 40980 ft 444 kts
2026-05-08 20:30 -7.86749 -35.52006 40984 ft 445 kts
2026-05-08 20:30 -7.80657 -35.50819 40978 ft 445 kts
2026-05-08 20:31 -7.74545 -35.49630 40980 ft 445 kts
2026-05-08 20:31 -7.68482 -35.48450 40981 ft 444 kts
2026-05-08 20:32 -7.65418 -35.47973 40981 ft 442 kts
2026-05-08 20:32 -7.59362 -35.48488 40993 ft 434 kts 345°
2026-05-08 20:33 -7.53409 -35.49792 40985 ft 435 kts 345°
2026-05-08 20:33 -7.47485 -35.51060 40984 ft 435 kts 345°
2026-05-08 20:34 -7.41740 -35.52914 40998 ft 431 kts 330°
2026-05-08 20:34 -7.36916 -35.56410 41001 ft 427 kts 318°
2026-05-08 20:35 -7.34651 -35.58351 40986 ft 427 kts 318°
2026-05-08 20:35 -7.30104 -35.62202 40992 ft 427 kts 319°
2026-05-08 20:36 -7.25558 -35.66038 40992 ft 428 kts 319°
2026-05-08 20:36 -7.20970 -35.69910 40993 ft 428 kts 319°
2026-05-08 20:37 -7.16428 -35.73738 40997 ft 427 kts 319°
2026-05-08 20:37 -7.11863 -35.77582 40998 ft 426 kts 319°
2026-05-08 20:38 -7.07278 -35.81388 41005 ft 426 kts 319°
2026-05-08 20:38 -7.02726 -35.85172 41012 ft 426 kts 319°
2026-05-08 20:39 -6.98126 -35.89010 41011 ft 429 kts 319°
2026-05-08 20:39 -6.93526 -35.92844 41016 ft 429 kts 319°
2026-05-08 20:40 -6.88937 -35.96669 41016 ft 428 kts 319°
2026-05-08 20:40 -6.84359 -36.00483 41020 ft 428 kts 319°
2026-05-08 20:41 -6.79752 -36.04321 41015 ft 428 kts 319°
2026-05-08 20:41 -6.75185 -36.08125 41013 ft 427 kts 319°
2026-05-08 20:42 -6.70593 -36.11948 41009 ft 428 kts 319°
2026-05-08 20:42 -6.65993 -36.15778 41012 ft 429 kts 319°
2026-05-08 20:43 -6.61378 -36.19617 41016 ft 429 kts 319°
2026-05-08 20:43 -6.56785 -36.23439 41015 ft 430 kts 319°
2026-05-08 20:44 -6.52164 -36.27283 41014 ft 430 kts 319°
2026-05-08 20:44 -6.47554 -36.31116 41017 ft 430 kts 319°
2026-05-08 20:45 -6.42956 -36.34938 41011 ft 431 kts 319°
2026-05-08 20:45 -6.38329 -36.38785 41004 ft 432 kts 319°
2026-05-08 20:46 -6.33673 -36.42654 41002 ft 430 kts 319°
2026-05-08 20:46 -6.29089 -36.46478 40998 ft 431 kts 319°
2026-05-08 20:47 -6.24472 -36.50315 40989 ft 432 kts 319°
2026-05-08 20:47 -6.19824 -36.54178 40987 ft 431 kts 319°
2026-05-08 20:48 -6.15214 -36.58008 40978 ft 433 kts 319°
2026-05-08 20:48 -6.10543 -36.61888 40967 ft 432 kts 319°
2026-05-08 20:49 -6.05909 -36.65733 40963 ft 433 kts 319°
2026-05-08 20:49 -6.01274 -36.69579 40954 ft 434 kts 319°
2026-05-08 20:50 -5.96604 -36.73452 40950 ft 434 kts 319°
2026-05-08 20:50 -5.91955 -36.77307 40949 ft 434 kts 319°
2026-05-08 20:51 -5.87302 -36.81165 40948 ft 433 kts 319°
2026-05-08 20:51 -5.82655 -36.85017 40950 ft 434 kts 319°
2026-05-08 20:52 -5.77974 -36.88897 40951 ft 434 kts 319°
2026-05-08 20:52 -5.73332 -36.92743 40955 ft 434 kts 319°
2026-05-08 20:53 -5.68673 -36.96601 40955 ft 434 kts 319°
2026-05-08 20:53 -5.64018 -37.00457 40952 ft 435 kts 319°
2026-05-08 20:54 -5.59333 -37.04336 40944 ft 435 kts 319°
2026-05-08 20:54 -5.54648 -37.08215 40941 ft 435 kts 319°
2026-05-08 20:55 -5.49999 -37.12062 40937 ft 436 kts 319°
2026-05-08 20:55 -5.45319 -37.15919 40933 ft 436 kts 320°
2026-05-08 20:56 -5.40554 -37.19736 40931 ft 435 kts 320°
2026-05-08 20:56 -5.35836 -37.23521 40928 ft 436 kts 320°
2026-05-08 20:57 -5.31122 -37.27301 40924 ft 437 kts 320°
2026-05-08 20:57 -5.26349 -37.31128 40924 ft 437 kts 320°
2026-05-08 20:58 -5.21588 -37.34945 40925 ft 437 kts 320°
2026-05-08 20:58 -5.16897 -37.38799 40924 ft 437 kts 319°
2026-05-08 20:59 -5.12232 -37.42703 40923 ft 437 kts 319°
2026-05-08 20:59 -5.07529 -37.46634 40922 ft 436 kts 319°
2026-05-08 21:00 -5.02870 -37.50528 40922 ft 435 kts 319°
2026-05-08 21:00 -4.98208 -37.54424 40925 ft 437 kts 319°
2026-05-08 21:01 -4.93560 -37.58307 40924 ft 437 kts 319°
2026-05-08 21:01 -4.88873 -37.62222 40922 ft 436 kts 319°
2026-05-08 21:02 -4.84204 -37.66122 40926 ft 437 kts 319°
2026-05-08 21:02 -4.79531 -37.70023 40924 ft 437 kts 319°
2026-05-08 21:03 -4.74854 -37.73927 40928 ft 438 kts 319°
2026-05-08 21:03 -4.70212 -37.77802 40932 ft 436 kts 319°
2026-05-08 21:04 -4.65529 -37.81710 40931 ft 437 kts 319°
2026-05-08 21:04 -4.60848 -37.85616 40932 ft 437 kts 319°
2026-05-08 21:05 -4.56173 -37.89516 40931 ft 438 kts 319°
2026-05-08 21:05 -4.51476 -37.93433 40930 ft 437 kts 319°
2026-05-08 21:06 -4.46793 -37.97332 40931 ft 436 kts 320°
2026-05-08 21:06 -4.42107 -38.01152 40933 ft 437 kts 320°
2026-05-08 21:07 -4.37368 -38.05018 40930 ft 436 kts 320°
2026-05-08 21:07 -4.32659 -38.08859 40928 ft 437 kts 320°
2026-05-08 21:08 -4.27959 -38.12700 40921 ft 438 kts 319°
2026-05-08 21:08 -4.23279 -38.16586 40914 ft 437 kts 320°
2026-05-08 21:09 -4.18570 -38.20491 40914 ft 439 kts 320°
2026-05-08 21:09 -4.13879 -38.24382 40910 ft 439 kts 320°
2026-05-08 21:10 -4.09161 -38.28294 40910 ft 438 kts 320°
2026-05-08 21:10 -4.04498 -38.32159 40913 ft 437 kts 320°
2026-05-08 21:11 -3.99831 -38.36029 40915 ft 438 kts 320°
2026-05-08 21:11 -3.95109 -38.39942 40914 ft 437 kts 320°
2026-05-08 21:12 -3.90421 -38.43827 40914 ft 439 kts 320°
2026-05-08 21:12 -3.85674 -38.47760 40918 ft 440 kts 320°
2026-05-08 21:13 -3.80998 -38.51688 40910 ft 438 kts 315°
2026-05-08 21:13 -3.77430 -38.56467 40915 ft 422 kts 297°
2026-05-08 21:14 -3.75625 -38.61990 40947 ft 420 kts 281°
2026-05-08 21:14 -3.75058 -38.64887 40497 ft 426 kts 282°
2026-05-08 21:14 -3.74465 -38.67748 40083 ft 424 kts 282°
2026-05-08 21:14 -3.73854 -38.70646 39613 ft 425 kts 282°
2026-05-08 21:15 -3.73249 -38.73500 39150 ft 426 kts 282°
2026-05-08 21:15 -3.72628 -38.76428 38680 ft 428 kts 282°
2026-05-08 21:15 -3.72013 -38.79326 38222 ft 429 kts 283°
2026-05-08 21:15 -3.71389 -38.82262 37742 ft 431 kts 283°
2026-05-08 21:16 -3.70772 -38.85169 37269 ft 431 kts 283°
2026-05-08 21:16 -3.70148 -38.88104 36795 ft 432 kts 283°
2026-05-08 21:16 -3.69522 -38.91053 36317 ft 434 kts 283°
2026-05-08 21:16 -3.68896 -38.94000 35838 ft 435 kts 283°
2026-05-08 21:17 -3.68273 -38.96930 35364 ft 436 kts 283°
2026-05-08 21:17 -3.67631 -38.99952 34873 ft 438 kts 283°
2026-05-08 21:17 -3.67001 -39.02913 34396 ft 440 kts 283°
2026-05-08 21:17 -3.66366 -39.05900 33911 ft 442 kts 284°
2026-05-08 21:18 -3.65722 -39.08929 33421 ft 444 kts 284°
2026-05-08 21:18 -3.65085 -39.11923 32934 ft 446 kts 284°
2026-05-08 21:18 -3.64434 -39.14982 32458 ft 447 kts 284°
2026-05-08 21:18 -3.63788 -39.18016 31973 ft 448 kts 284°
2026-05-08 21:19 -3.63144 -39.21047 31479 ft 448 kts 284°
2026-05-08 21:19 -3.62495 -39.24097 30985 ft 447 kts 283°
2026-05-08 21:19 -3.61850 -39.27130 30492 ft 448 kts 283°
2026-05-08 21:19 -3.61207 -39.30152 30001 ft 444 kts 283°
2026-05-08 21:20 -3.60569 -39.33149 29515 ft 439 kts 283°
2026-05-08 21:20 -3.59938 -39.36118 29034 ft 435 kts 283°
2026-05-08 21:20 -3.59309 -39.39072 28557 ft 431 kts 282°
2026-05-08 21:20 -3.58687 -39.41992 28092 ft 428 kts 283°
2026-05-08 21:21 -3.58070 -39.44891 27624 ft 426 kts 283°
2026-05-08 21:21 -3.57455 -39.47783 27153 ft 424 kts 283°
2026-05-08 21:21 -3.56839 -39.50673 26686 ft 423 kts 283°
2026-05-08 21:21 -3.56235 -39.53507 26225 ft 421 kts 283°
2026-05-08 21:22 -3.55628 -39.56358 25761 ft 418 kts 283°
2026-05-08 21:22 -3.55022 -39.59200 25298 ft 416 kts 283°
2026-05-08 21:22 -3.54416 -39.62043 24835 ft 414 kts 283°
2026-05-08 21:22 -3.53823 -39.64830 24383 ft 411 kts 283°
2026-05-08 21:23 -3.53233 -39.67597 23932 ft 409 kts 283°
2026-05-08 21:23 -3.52635 -39.70402 23481 ft 407 kts 283°
2026-05-08 21:23 -3.52043 -39.73178 23031 ft 405 kts 284°
2026-05-08 21:23 -3.51456 -39.75929 22583 ft 403 kts 284°
2026-05-08 21:24 -3.50874 -39.78657 22144 ft 401 kts 284°
2026-05-08 21:24 -3.50294 -39.81376 21705 ft 399 kts 283°
2026-05-08 21:24 -3.49722 -39.84057 21267 ft 397 kts 283°
2026-05-08 21:24 -3.49144 -39.86766 20827 ft 394 kts 283°
2026-05-08 21:25 -3.48575 -39.89430 20394 ft 391 kts 283°
2026-05-08 21:25 -3.48011 -39.92072 19964 ft 388 kts 283°
2026-05-08 21:25 -3.47451 -39.94695 19537 ft 386 kts 283°
2026-05-08 21:25 -3.46895 -39.97297 19113 ft 383 kts 283°
2026-05-08 21:26 -3.46342 -39.99889 18689 ft 381 kts 283°
2026-05-08 21:26 -3.45839 -40.02478 18268 ft 379 kts 278°
2026-05-08 21:26 -3.45486 -40.05083 17852 ft 377 kts 278°
2026-05-08 21:26 -3.45130 -40.07666 17434 ft 374 kts 278°
2026-05-08 21:27 -3.44773 -40.10248 17025 ft 373 kts 278°
2026-05-08 21:27 -3.44420 -40.12795 16617 ft 373 kts 277°
2026-05-08 21:27 -3.44011 -40.15339 16206 ft 372 kts 281°
2026-05-08 21:27 -3.43483 -40.17897 15792 ft 370 kts 281°
2026-05-08 21:28 -3.42968 -40.20413 15381 ft 369 kts 281°
2026-05-08 21:28 -3.42460 -40.22908 14979 ft 369 kts 281°
2026-05-08 21:28 -3.41946 -40.25428 14570 ft 368 kts 281°
2026-05-08 21:28 -3.41434 -40.27940 14161 ft 367 kts 281°
2026-05-08 21:29 -3.40928 -40.30424 13763 ft 365 kts 281°
2026-05-08 21:29 -3.40424 -40.32894 13360 ft 364 kts 280°
2026-05-08 21:29 -3.39916 -40.35386 12962 ft 363 kts 281°
2026-05-08 21:29 -3.39414 -40.37850 12571 ft 362 kts 281°
2026-05-08 21:30 -3.38915 -40.40296 12174 ft 359 kts 281°
2026-05-08 21:30 -3.38420 -40.42722 11783 ft 357 kts 281°
2026-05-08 21:30 -3.37923 -40.45157 11384 ft 351 kts 281°
2026-05-08 21:30 -3.37445 -40.47503 11006 ft 343 kts 281°
2026-05-08 21:31 -3.36905 -40.49815 10617 ft 334 kts 292°
2026-05-08 21:31 -3.35620 -40.51647 10306 ft 318 kts 323°
2026-05-08 21:31 -3.33724 -40.52684 9846 ft 309 kts 345°
2026-05-08 21:31 -3.31691 -40.53315 9473 ft 301 kts 348°
2026-05-08 21:32 -3.29681 -40.53866 9123 ft 294 kts 349°
2026-05-08 21:32 -3.27709 -40.54375 8797 ft 293 kts 349°
2026-05-08 21:32 -3.25730 -40.54874 8474 ft 292 kts 349°
2026-05-08 21:32 -3.23741 -40.55370 8145 ft 292 kts 349°
2026-05-08 21:33 -3.21775 -40.55856 7820 ft 291 kts 349°
2026-05-08 21:33 -3.19808 -40.56343 7494 ft 290 kts 349°
2026-05-08 21:33 -3.17848 -40.56827 7170 ft 288 kts 349°
2026-05-08 21:33 -3.15921 -40.57303 6847 ft 281 kts 350°
2026-05-08 21:34 -3.14042 -40.57767 6532 ft 274 kts 349°
2026-05-08 21:34 -3.12184 -40.58225 6229 ft 268 kts 350°
2026-05-08 21:34 -3.10397 -40.58666 5931 ft 262 kts 350°
2026-05-08 21:34 -3.08652 -40.59096 5641 ft 256 kts 350°
2026-05-08 21:35 -3.06918 -40.59523 5352 ft 251 kts 349°
2026-05-08 21:35 -3.05254 -40.59934 5049 ft 241 kts 350°
2026-05-08 21:35 -3.03658 -40.59896 4827 ft 223 kts 30°
2026-05-08 21:35 -3.02529 -40.58899 4717 ft 215 kts 59°
2026-05-08 21:36 -3.01765 -40.57659 4485 ft 207 kts 62°
2026-05-08 21:36 -3.01063 -40.56410 4179 ft 203 kts 64°
2026-05-08 21:36 -3.00408 -40.55186 3930 ft 196 kts 65°
2026-05-08 21:36 -2.99786 -40.53991 3699 ft 189 kts 65°
2026-05-08 21:37 -2.99198 -40.52842 3486 ft 182 kts 66°
2026-05-08 21:37 -2.98636 -40.51732 3288 ft 177 kts 66°
2026-05-08 21:37 -2.98080 -40.50627 3099 ft 177 kts 66°
2026-05-08 21:37 -2.97524 -40.49520 2892 ft 179 kts 66°
2026-05-08 21:38 -2.96967 -40.48408 2667 ft 179 kts 66°
2026-05-08 21:38 -2.96420 -40.47315 2426 ft 174 kts 65°
2026-05-08 21:38 -2.95889 -40.46252 2175 ft 169 kts 65°
2026-05-08 21:38 -2.95382 -40.45239 2028 ft 153 kts 65°
2026-05-08 21:39 -2.94924 -40.44323 1753 ft 140 kts 65°
2026-05-08 21:39 -2.94495 -40.43465 1550 ft 134 kts 65°
2026-05-08 21:39 -2.94090 -40.42654 1351 ft 127 kts 65°
2026-05-08 21:39 -2.93711 -40.41896 1172 ft 117 kts 65°
2026-05-08 21:40 -2.93346 -40.41164 1044 ft 118 kts 65°
2026-05-08 21:40 -2.92970 -40.40411 915 ft 121 kts 65°
2026-05-08 21:40 -2.92596 -40.39661 772 ft 123 kts 64°
2026-05-08 21:41 -2.91818 -40.38105 443 ft 125 kts 64°
2026-05-08 21:41 -2.91424 -40.37330 277 ft 126 kts 62°
2026-05-08 21:41 -2.91029 -40.36544 120 ft 127 kts 64°
2026-05-08 21:41 -2.90668 -40.35796 96 ft 100 kts 64°
2026-05-08 21:42 -2.90431 -40.35314 98 ft 54 kts 64°
2026-05-08 21:42 -2.90309 -40.35069 99 ft 33 kts 63°
2026-05-08 21:42 -2.90240 -40.34930 99 ft 13 kts 63°
2026-05-08 21:42 -2.90217 -40.34879 99 ft 6 kts 80°
2026-05-08 21:43 -2.90224 -40.34856 99 ft 4 kts 122°
2026-05-08 21:43 -2.90261 -40.34829 99 ft 8 kts 149°
2026-05-08 21:43 -2.90324 -40.34787 99 ft 12 kts 142°
2026-05-08 21:43 -2.90361 -40.34772 99 ft 2 kts 176°
2026-05-08 21:44 -2.90385 -40.34782 99 ft 3 kts 220°
2026-05-08 21:44 -2.90400 -40.34802 99 ft 2 kts 227°
2026-05-08 21:44 -2.90416 -40.34805 99 ft 2 kts 153°
2026-05-08 21:44 -2.90430 -40.34795 99 ft 2 kts 150°
2026-05-08 21:45 -2.90447 -40.34786 99 ft 3 kts 153°
2026-05-08 21:45 -2.90449 -40.34786 99 ft 0 kts 153°